GW6833 Weather Reports


time (UTC)temp
F
wind
direction
speed
knots
gust
knots
rain 1hr
in
rain 24hr
in
rain mn
in
humidity
%
barometer
mb
20260504201903 58 18 5.2 7.8 0.00 0.00 0.00 37 1011.4
20260504201400 57 357 7.8 7.8 0.00 0.00 0.00 38 1011.2
20260504200857 58 10 11.3 13.0 0.00 0.00 0.00 37 1011.5
20260504200354 58 6 6.1 9.6 0.00 0.00 0.00 37 1011.4
20260504195851 59 22 4.3 4.3 0.00 0.00 0.00 35 1011.2
20260504195346 59 8 4.3 5.2 0.00 0.00 0.00 37 1011.4
20260504194843 59 59 5.2 10.4 0.00 0.00 0.00 35 1011.0
20260504194339 59 10 14.8 15.6 0.00 0.00 0.00 35 1010.9
20260504193835 58 0 7.8 8.7 0.00 0.00 0.00 35 1011.1
20260504193332 59 341 6.1 11.3 0.00 0.00 0.00 35 1010.9
20260504192831 60 0 9.6 13.9 0.00 0.00 0.00 35 1011.1
20260504192329 58 20 13.9 15.6 0.00 0.00 0.00 36 1011.1
20260504191827 57 348 13.0 14.8 0.00 0.00 0.00 36 1011.1
20260504191324 58 10 11.3 15.6 0.00 0.00 0.00 36 1011.1
20260504190819 58 350 11.3 13.0 0.00 0.00 0.00 36 1011.0
20260504190316 58 5 9.6 16.5 0.00 0.00 0.00 36 1011.1
20260504185812 58 351 11.3 20.9 0.00 0.00 0.00 36 1011.0
20260504185309 59 354 16.5 20.0 0.00 0.00 0.00 35 1010.8
20260504184806 59 352 15.6 21.7 0.00 0.00 0.00 35 1011.0
20260504184301 60 355 18.2 21.7 0.00 0.00 0.00 35 1010.6
20260504183757 60 17 13.9 20.9 0.00 0.00 0.00 33 1010.6
20260504183254 61 5 19.1 26.9 0.00 0.00 0.00 33 1010.6
20260504182753 59 8 14.8 23.5 0.00 0.00 0.00 34 1010.5
20260504182249 59 4 19.1 21.7 0.00 0.00 0.00 36 1010.5
20260504181747 58 4 15.6 22.6 0.00 0.00 0.00 36 1010.4
20260504181244 58 357 18.2 22.6 0.00 0.00 0.00 36 1010.8
20260504180743 59 348 11.3 20.9 0.00 0.00 0.00 36 1010.6
20260504180241 59 0 16.5 26.9 0.00 0.00 0.00 34 1010.9
20260504175739 59 0 17.4 22.6 0.00 0.00 0.00 34 1010.5
20260504175235 59 10 16.5 21.7 0.00 0.00 0.00 33 1010.8
20260504174733 61 345 19.1 26.1 0.00 0.00 0.00 32 1010.8
20260504174231 62 10 15.6 24.3 0.00 0.00 0.00 30 1010.8
20260504173727 62 5 20.0 23.5 0.00 0.00 0.00 30 1010.6
20260504173224 63 2 16.5 20.9 0.00 0.00 0.00 30 1010.3
20260504172721 62 11 15.6 22.6 0.00 0.00 0.00 28 1010.5
20260504172217 61 359 16.5 20.0 0.00 0.00 0.00 29 1010.6
20260504171714 63 344 12.2 14.8 0.00 0.00 0.00 27 1010.5
20260504171211 63 0 6.1 6.1 0.00 0.00 0.00 22 1010.6
20260504170708 63 313 5.2 7.0 0.00 0.00 0.00 22 1010.4
20260504170205 63 312 7.8 11.3 0.00 0.00 0.00 22 1010.3
20260504160124 63 278 5.2 12.2 0.00 0.00 0.00 22 1010.4
20260504151051 62 281 9.6 13.0 0.00 0.00 0.00 22 1010.5
20260504150548 62 284 9.6 13.0 0.00 0.00 0.00 23 1010.5
20260504141014 57 315 11.3 14.8 0.00 0.00 0.00 28 1010.4
20260504140511 58 329 9.6 14.8 0.00 0.00 0.00 28 1010.3
20260504130435 47 357 3.5 6.1 0.00 0.00 0.00 38 1010.3
20260504110322 47 235 10.4 13.0 0.00 0.00 0.00 42 1009.9
20260504100240 45 245 7.0 10.4 0.00 0.00 0.00 46 1010.3
20260504081633 39 268 4.3 6.1 0.00 0.00 0.00 62 1011.7
20260504081129 39 276 3.5 3.5 0.00 0.00 0.00 61 1011.7
20260504080626 40 278 3.5 4.3 0.00 0.00 0.00 60 1011.6
20260504080122 40 263 3.5 4.3 0.00 0.00 0.00 59 1011.9
20260504050439 44 246 2.6 2.6 0.00 0.00 0.00 51 1013.2
20260504045936 44 246 2.6 2.6 0.00 0.00 0.00 51 1013.5
20260504045431 43 222 3.5 4.3 0.00 0.00 0.00 54 1013.2
20260504044927 43 222 3.5 4.3 0.00 0.00 0.00 54 1013.3
20260504044425 45 287 3.5 3.5 0.00 0.00 0.00 49 1013.2
20260504043923 45 287 3.5 3.5 0.00 0.00 0.00 49 1013.3
20260504043420 45 287 3.5 3.5 0.00 0.00 0.00 49 1013.2
20260504042917 45 287 3.5 3.5 0.00 0.00 0.00 49 1013.3
20260504042413 45 287 3.5 3.5 0.00 0.00 0.00 49 1013.5
20260504041910 45 287 3.5 3.5 0.00 0.00 0.00 49 1013.7
20260504041406 45 287 3.5 3.5 0.00 0.00 0.00 49 1013.5
20260504040902 46 295 4.3 4.3 0.00 0.00 0.00 48 1013.5
20260504040400 46 309 3.5 3.5 0.00 0.00 0.00 47 1013.5
20260504035855 47 318 3.5 3.5 0.00 0.00 0.00 46 1013.4
20260504035353 47 318 3.5 3.5 0.00 0.00 0.00 46 1013.5
20260504034850 47 327 3.5 3.5 0.00 0.00 0.00 46 1013.5
20260504034347 48 330 3.5 3.5 0.00 0.00 0.00 45 1013.5
20260504033844 47 345 1.7 2.6 0.00 0.00 0.00 45 1013.4
20260504033342 48 332 1.7 2.6 0.00 0.00 0.00 45 1013.4
20260504032838 48 354 1.7 1.7 0.00 0.00 0.00 44 1013.4
20260504032336 48 333 1.7 2.6 0.00 0.00 0.00 44 1013.5
20260504031833 48 5 1.7 1.7 0.00 0.00 0.00 43 1013.3
20260504031330 49 359 2.6 2.6 0.00 0.00 0.00 43 1013.5
20260504030826 49 10 1.7 2.6 0.00 0.00 0.00 42 1013.3
20260504030324 50 26 2.6 4.3 0.00 0.00 0.00 41 1013.4
20260504025819 51 29 2.6 5.2 0.00 0.00 0.00 40 1013.2
20260504025317 51 45 6.1 6.1 0.00 0.00 0.00 40 1013.2
20260504024813 51 70 4.3 5.2 0.00 0.00 0.00 40 1013.3
20260504024310 52 62 3.5 5.2 0.00 0.00 0.00 38 1013.3
20260504023806 53 34 1.7 5.2 0.00 0.00 0.00 37 1013.2
20260504023303 53 33 3.5 4.3 0.00 0.00 0.00 36 1013.2
20260504022759 53 56 4.3 7.8 0.00 0.00 0.00 36 1013.2
20260504022255 54 58 5.2 8.7 0.00 0.00 0.00 35 1013.1
20260504021752 54 41 4.3 7.8 0.00 0.00 0.00 35 1013.1
20260504021250 55 35 5.2 7.0 0.00 0.00 0.00 34 1013.1
20260504020747 55 45 3.5 7.0 0.00 0.00 0.00 34 1013.2
20260504020243 55 10 5.2 6.1 0.00 0.00 0.00 33 1013.2
20260504015739 56 28 5.2 5.2 0.00 0.00 0.00 33 1013.2
20260504015236 56 18 3.5 7.8 0.00 0.00 0.00 33 1013.1
20260504014731 57 9 7.0 8.7 0.00 0.00 0.00 32 1012.9
20260504014228 57 14 7.8 11.3 0.00 0.00 0.00 31 1013.1
20260504013726 58 38 7.0 10.4 0.00 0.00 0.00 31 1012.8
20260504013224 58 27 10.4 13.0 0.00 0.00 0.00 30 1012.9
20260504012720 59 33 9.6 12.2 0.00 0.00 0.00 29 1012.9
20260504012218 60 17 7.0 12.2 0.00 0.00 0.00 28 1013.1
20260504011715 61 358 9.6 14.8 0.00 0.00 0.00 26 1012.9
20260504011211 64 330 14.8 20.9 0.00 0.00 0.00 20 1012.9
20260504010707 64 279 6.1 6.1 0.00 0.00 0.00 19 1012.5
20260504010203 64 301 17.4 18.2 0.00 0.00 0.00 19 1012.9
20260504005700 64 272 10.4 18.2 0.00 0.00 0.00 19 1012.6
20260504005157 64 310 11.3 12.2 0.00 0.00 0.00 18 1012.6
20260504004655 64 325 12.2 14.8 0.00 0.00 0.00 18 1012.7
20260504004151 64 323 8.7 13.0 0.00 0.00 0.00 18 1012.7
20260504003648 64 317 10.4 14.8 0.00 0.00 0.00 18 1012.7
20260504003145 64 336 11.3 13.0 0.00 0.00 0.00 20 1012.8
20260504002641 64 358 8.7 11.3 0.00 0.00 0.00 22 1012.7
20260504002139 64 0 9.6 16.5 0.00 0.00 0.00 21 1012.6
20260504001637 65 319 7.8 16.5 0.00 0.00 0.00 17 1012.6
20260504001132 66 315 20.9 22.6 0.00 0.00 0.00 17 1012.5
20260504000630 66 303 16.5 20.0 0.00 0.00 0.00 15 1012.6
20260504000127 67 302 16.5 18.2 0.00 0.00 0.00 15 1012.5
20260503235625 68 293 15.6 22.6 0.00 0.00 0.00 15 1012.3
20260503235122 66 292 11.3 14.8 0.00 0.00 0.00 15 1012.6
20260503234620 67 302 14.8 16.5 0.00 0.00 0.00 15 1012.6
20260503234118 66 304 13.9 16.5 0.00 0.00 0.00 16 1012.6
20260503233614 67 320 15.6 18.2 0.00 0.00 0.00 15 1012.6
20260503233110 67 316 16.5 24.3 0.00 0.00 0.00 15 1012.5
20260503232607 67 303 12.2 17.4 0.00 0.00 0.00 15 1012.6
20260503232104 66 277 11.3 12.2 0.00 0.00 0.00 15 1012.9
20260503231602 67 296 13.9 19.1 0.00 0.00 0.00 14 1012.7
20260503231059 68 269 15.6 17.4 0.00 0.00 0.00 14 1012.5
20260503230555 67 265 10.4 15.6 0.00 0.00 0.00 14 1012.7
20260503230053 67 306 13.0 15.6 0.00 0.00 0.00 14 1012.7
20260503225549 66 297 12.2 20.0 0.00 0.00 0.00 15 1012.8
20260503225044 66 308 9.6 14.8 0.00 0.00 0.00 14 1012.7
20260503224542 67 277 9.6 12.2 0.00 0.00 0.00 15 1012.6
20260503224040 67 309 12.2 18.2 0.00 0.00 0.00 14 1012.9
20260503223538 67 285 12.2 15.6 0.00 0.00 0.00 14 1012.8
20260503223033 66 296 9.6 15.6 0.00 0.00 0.00 15 1012.9
20260503222532 66 288 13.0 18.2 0.00 0.00 0.00 14 1012.9
20260503222029 66 288 11.3 15.6 0.00 0.00 0.00 14 1013.1
20260503221527 66 280 12.2 17.4 0.00 0.00 0.00 14 1012.9
20260503221024 67 296 11.3 14.8 0.00 0.00 0.00 14 1013.3
20260503220520 67 285 8.7 11.3 0.00 0.00 0.00 15 1012.9
20260503220017 67 289 15.6 16.5 0.00 0.00 0.00 15 1012.9
20260503215515 66 286 11.3 21.7 0.00 0.00 0.00 16 1013.1
20260503215012 66 293 7.0 13.0 0.00 0.00 0.00 16 1013.3
20260503214510 66 325 9.6 12.2 0.00 0.00 0.00 15 1013.4
20260503214006 66 302 9.6 13.9 0.00 0.00 0.00 16 1013.4
20260503213505 66 302 10.4 18.2 0.00 0.00 0.00 15 1013.5
20260503213001 67 285 9.6 14.8 0.00 0.00 0.00 15 1013.8
20260503212458 67 287 10.4 13.0 0.00 0.00 0.00 15 1013.5
20260503211955 67 246 7.8 14.8 0.00 0.00 0.00 15 1013.9
20260503211453 66 272 6.1 13.0 0.00 0.00 0.00 15 1013.8
20260503210948 67 277 12.2 13.0 0.00 0.00 0.00 15 1013.8
20260503210445 66 271 7.8 13.0 0.00 0.00 0.00 16 1014.0
20260503205945 66 259 12.2 16.5 0.00 0.00 0.00 17 1014.0
20260503205443 66 296 7.0 14.8 0.00 0.00 0.00 16 1014.2
20260503204939 65 263 5.2 9.6 0.00 0.00 0.00 18 1014.3
20260503204436 65 275 3.5 7.0 0.00 0.00 0.00 19 1014.3
20260503203933 65 292 3.5 6.1 0.00 0.00 0.00 20 1014.5
20260503203430 65 279 7.8 8.7 0.00 0.00 0.00 18 1014.6
20260503202927 65 266 5.2 5.2 0.00 0.00 0.00 22 1014.6
20260503202425 64 298 4.3 5.2 0.00 0.00 0.00 21 1014.5